Pacific - Georgia Basin: Past 24 Hour Conditions

 

Vancouver Int'l Airport

03:00 AM PDT 02 October 2014
This table is a summary of hourly weather conditions for the past 24 hours.
Date / Time
(PDT)
Wind(knots) Conditions Visibility(km) Pressure(kPa) Air tempC) Relative humidity(%) Dew pointC)
02 October 2014
3:00 ENE 7 Cloudy 32 102.3 11 84 8
2:00 ENE 5 Cloudy 32 102.3 11 85 8
1:00 ENE 3 Mostly Cloudy 32 102.3 11 80 7
0:00 E 4 Mostly Cloudy 32 102.3 11 80 8
01 October 2014
23:00 NE 5 Mostly Cloudy 32 102.2 12 81 9
22:00 NNW 2 Mostly Cloudy 32 102.2 12 82 9
21:00 WNW 4 Mostly Cloudy 32 102.2 12 85 10
20:00 SW 4 Mostly Cloudy 32 102.1 14 71 9
19:00 WSW 2 Mostly Cloudy 48 102.1 14 68 9
18:00 WSW 8 Mostly Cloudy 48 102.1 14 71 9
17:00 WSW 6 Mostly Cloudy 48 102.2 14 76 10
16:00 SW 7 Mostly Cloudy 32 102.2 15 75 10
15:00 W 5 Mostly Cloudy 32 102.2 15 73 10
14:00 WSW 6 Mostly Cloudy 32 102.2 14 74 10
13:00 SW 4 Mostly Cloudy 32 102.2 14 72 10
12:00 SW 6 Mostly Cloudy 32 102.3 15 77 11
11:00 W 5 Mostly Cloudy 32 102.3 14 79 11
10:00 W 5 Mostly Cloudy 32 102.3 14 82 11
9:00 calm Mostly Cloudy 32 102.3 13 85 11
8:00 E 4 Mostly Cloudy 32 102.2 11 93 10
7:00 calm Partly Cloudy 32 102.2 11 91 9
6:00 N 1 Mainly Clear 32 102.2 11 92 9
5:00 ESE 4 Partly Cloudy 32 102.2 10 92 9
4:00 ESE 3 Mostly Cloudy 32 102.1 11 91 10
3:00 NE 4 Mostly Cloudy 32 102.1 11 93 10
 
Map of Pacific - Georgia Basin marine weather areas Tsawwassen Ferry Terminal Sentry Shoal - 46131 Halibut Bank - 46146 La Perouse Bank - 46206 Discovery Island Esquimalt Harbour Kelp Reefs Malahat Race Rocks Lightstation Saturna Island Sheringham Point University of Victoria Victoria Gonzales Victoria Int'l Airport Ballenas Islands Campbell River Airport Comox Airport Entrance Island Fanny Island Nanaimo Airport Sisters Islets Estevan Point Tofino Airport Grief Point Powell River Airport Sechelt Point Atkinson Sand Heads Lightstation Vancouver Harbour Vancouver Int'l Airport West Vancouver Port Alberni Howe Sound - Pam Rocks Squamish Airport